Date,TemperatureHighF,TemperatureAvgF,TemperatureLowF,DewpointHighF,DewpointAvgF,DewpointLowF,HumidityHigh,HumidityAvg,HumidityLow,PressureMaxIn,PressureMinIn,WindSpeedMaxMPH,WindSpeedAvgMPH,GustSpeedMaxMPH,PrecipitationSumIn
2012-1-1,33.8,26.9,20.0,32.4,21.2,13.0,95,79,65,30.37,29.71,33,10,33,0.01
2012-1-2,20.9,17.4,12.8,15.1,11.0,8.6,84,76,65,30.55,30.36,26,5,28,0.00
2012-1-3,32.3,24.0,9.1,21.9,15.1,5.8,87,70,51,30.52,29.93,31,7,31,0.00
2012-1-4,39.9,32.7,26.7,31.9,27.0,21.4,88,80,67,30.17,29.94,18,5,18,0.00
2012-1-5,57.1,46.7,29.6,38.0,33.5,25.6,85,60,44,29.93,29.67,22,7,22,0.00
2012-1-6,44.7,40.7,36.7,32.2,30.5,28.7,76,67,55,29.81,29.66,14,3,14,0.00
2012-1-7,35.5,29.8,27.2,26.4,25.6,24.8,92,85,69,30.26,30.18,4,1,4,0.00
2012-1-8,42.2,31.1,22.5,29.7,25.3,20.4,93,80,56,30.33,30.19,13,4,13,0.00
2012-1-9,48.1,36.3,27.8,33.2,28.3,24.3,87,73,55,30.19,29.96,23,9,23,0.00
2012-1-10,54.8,37.3,29.0,34.3,28.6,24.4,84,72,41,30.00,29.79,19,5,19,0.00
2012-1-11,37.9,25.5,13.3,33.9,20.8,5.4,89,82,71,29.84,29.59,33,9,33,0.00
2012-1-12,13.3,11.0,9.1,8.3,5.7,3.5,83,79,68,29.92,29.79,29,9,31,0.00
2012-1-13,15.8,10.2,6.7,8.0,4.9,2.5,85,79,63,30.08,29.91,18,3,18,0.00
2012-1-14,26.2,22.6,19.8,23.7,20.3,17.0,93,91,89,30.19,30.14,8,3,10,0.00
2012-1-15,41.7,28.8,14.6,30.2,23.3,12.2,93,81,55,30.19,29.73,36,10,36,0.00
2012-1-16,34.0,29.9,21.9,28.8,24.7,14.3,90,81,72,29.86,29.71,18,5,18,0.00
2012-1-17,21.9,12.7,-0.7,14.6,6.9,-4.8,86,77,64,30.35,29.84,25,6,25,0.00
2012-1-18,27.2,12.5,-0.6,21.9,6.7,-4.6,89,78,65,30.33,29.83,31,9,31,0.00
2012-1-19,4.8,-0.6,-6.0,-4.1,-10.4,-14.5,72,63,47,30.26,29.99,23,4,23,0.00
2012-1-20,7.5,3.4,-0.3,2.6,-1.7,-8.2,85,79,61,30.32,30.13,14,3,14,0.00
2012-1-21,17.7,6.4,-3.8,15.3,3.1,-7.7,90,86,81,30.32,30.00,29,10,29,0.00
2012-1-22,32.7,26.0,17.7,31.9,24.5,15.3,97,94,90,30.00,29.42,25,15,25,0.00
2012-1-23,32.5,25.2,21.7,31.9,22.9,17.8,98,91,85,30.00,29.41,0,0,0,0.00
2012-1-24,27.1,22.5,20.9,22.1,19.1,17.4,90,86,79,30.30,30.00,0,0,0,0.00
2012-1-25,34.8,28.2,23.4,30.5,25.7,21.0,95,90,84,30.24,29.93,21,6,21,0.01
2012-1-26,39.1,32.0,25.5,32.6,28.0,21.0,93,85,75,29.93,29.72,17,5,17,0.12
2012-1-27,34.9,28.0,21.2,32.1,23.5,17.1,92,83,67,30.02,29.83,25,6,25,0.00
2012-1-28,32.2,25.3,19.2,25.9,19.0,13.7,90,77,64,30.11,29.99,19,8,19,0.01
2012-1-29,29.1,22.9,17.4,25.6,17.2,12.5,90,79,64,30.24,29.98,22,5,22,0.00
2012-1-30,46.4,37.3,24.3,36.0,29.2,20.5,85,73,59,29.99,29.66,21,7,23,0.00
2012-1-31,46.3,40.3,33.2,38.8,34.1,31.4,95,79,65,29.99,29.63,22,7,22,0.00
2012-2-1,38.1,33.1,28.9,37.1,32.3,28.2,98,97,95,30.17,29.99,9,2,10,0.00
2012-2-2,49.1,35.7,28.3,40.0,32.7,26.0,98,89,67,30.39,30.16,7,1,7,0.01
2012-2-3,32.6,30.6,29.0,31.8,29.7,28.0,97,96,94,30.43,30.36,11,4,12,0.00
2012-2-4,38.7,31.5,27.2,32.3,28.6,26.0,97,89,74,30.39,30.28,13,4,13,0.00
2012-2-5,28.9,27.3,26.2,27.6,26.1,25.2,97,95,93,30.40,30.28,13,3,14,0.00
2012-2-6,40.8,30.8,24.1,33.8,28.5,22.6,97,92,75,30.28,30.10,15,5,15,0.00
2012-2-7,32.4,28.8,24.3,29.9,24.2,16.8,93,83,71,30.50,30.20,9,4,13,0.00
2012-2-8,30.0,22.2,13.4,17.1,13.3,7.4,87,70,44,30.50,30.34,8,2,11,0.00
2012-2-9,35.7,24.9,12.8,28.1,20.7,10.4,91,84,68,30.34,30.00,24,8,24,0.00
2012-2-10,27.4,13.9,7.5,25.0,5.8,-2.9,91,70,57,30.56,30.00,24,8,24,0.00
2012-2-11,21.5,12.3,0.3,0.7,-2.9,-7.8,70,51,35,30.70,30.56,21,5,21,0.00
2012-2-12,28.8,14.4,8.0,8.0,2.1,-1.2,71,59,29,30.58,30.16,14,4,15,0.00
2012-2-13,29.9,26.5,16.3,28.5,20.7,8.1,96,80,51,30.17,29.76,23,7,23,0.00
2012-2-14,36.9,29.7,25.7,31.9,26.8,22.8,95,89,81,29.87,29.75,17,6,17,0.01
2012-2-15,45.9,33.8,27.5,38.9,30.7,26.0,95,89,75,29.96,29.87,11,3,11,0.00
2012-2-16,37.9,32.4,26.0,27.7,25.7,22.8,95,76,60,30.16,30.10,18,5,18,0.00
2012-2-17,40.5,31.8,26.2,31.7,24.9,19.1,86,76,58,30.19,29.98,15,4,15,0.00
2012-2-18,38.4,29.5,20.1,21.1,18.8,14.8,80,65,46,30.30,30.19,7,2,7,0.00
2012-2-19,40.9,35.0,22.4,27.6,25.3,17.8,83,68,55,30.18,30.09,22,8,22,0.00
2012-2-20,42.7,35.2,25.5,32.5,28.8,21.1,97,79,58,30.08,29.65,33,17,33,0.00
2012-2-21,39.1,34.6,31.4,33.1,28.7,26.2,97,79,70,29.70,29.63,32,10,32,0.02
2012-2-22,44.7,36.2,29.2,36.0,31.4,26.4,94,83,62,29.50,29.41,11,2,11,0.00
2012-2-23,38.1,33.5,29.3,31.3,29.6,25.6,95,86,75,29.67,29.43,15,3,15,0.00
2012-2-24,29.9,25.6,17.6,28.4,20.0,11.2,94,79,64,30.11,29.67,23,5,23,0.00
2012-2-25,28.2,21.6,13.9,20.7,15.6,8.9,87,78,71,30.30,30.05,21,6,21,0.00
2012-2-26,43.9,31.2,20.0,34.0,23.4,16.1,86,73,55,30.13,29.74,43,17,43,0.00
2012-2-27,34.3,25.6,17.2,21.9,18.4,13.2,86,75,55,30.49,30.13,25,4,25,0.00
2012-2-28,37.7,32.9,29.0,36.7,29.9,24.1,96,89,78,30.26,29.47,26,11,26,0.09
2012-2-29,38.2,32.9,31.9,37.4,31.5,29.9,97,94,91,29.73,29.19,32,13,32,0.30
2012-3-1,35.2,32.8,31.3,31.7,30.3,29.4,95,91,83,29.85,29.73,12,2,12,0.01
2012-3-2,32.0,30.4,29.3,30.2,26.7,23.8,95,86,78,29.76,29.68,26,6,26,0.00
2012-3-3,29.6,25.3,20.1,24.5,19.7,15.6,85,79,72,29.92,29.68,29,7,29,0.00
2012-3-4,26.0,21.8,17.4,22.4,18.1,13.9,90,85,80,30.08,29.89,11,2,11,0.00
2012-3-5,33.9,26.5,17.1,29.2,22.5,15.2,92,85,78,30.30,29.93,24,8,24,0.00
2012-3-6,66.0,45.3,29.7,49.8,37.2,26.2,88,75,53,29.93,29.60,28,10,28,0.01
2012-3-7,56.8,40.5,28.2,51.4,37.1,23.8,94,88,77,29.97,29.56,27,7,27,0.01
2012-3-8,41.2,35.0,24.6,29.8,24.7,16.4,86,66,50,30.41,29.97,21,7,21,0.00
2012-3-9,37.3,32.2,21.5,24.4,17.4,8.1,71,55,39,30.60,30.25,21,7,22,0.00
2012-3-10,64.9,49.2,35.3,33.6,29.8,24.4,73,50,24,30.25,29.99,31,14,32,0.00
2012-3-11,60.9,49.4,37.8,49.2,37.1,30.9,96,64,38,30.04,29.73,22,8,22,0.32
2012-3-12,55.4,49.3,45.5,49.5,45.8,41.9,97,88,69,29.90,29.64,23,8,23,0.07
2012-3-13,66.8,50.3,38.8,47.1,41.8,35.9,97,76,37,30.03,29.84,24,5,24,0.01
2012-3-14,75.0,59.7,48.5,58.8,52.2,45.0,91,77,54,29.85,29.73,23,7,23,0.00
2012-3-15,72.2,57.7,41.6,50.3,43.9,35.8,81,62,39,29.99,29.84,11,2,11,0.00
2012-3-16,78.5,64.0,49.5,62.4,54.7,44.5,95,73,46,29.92,29.78,22,6,26,0.00
2012-3-17,79.0,68.5,57.8,62.8,58.8,53.7,94,73,47,29.81,29.70,29,11,29,0.00
2012-3-18,68.3,64.1,59.1,59.8,58.5,56.2,90,82,74,29.77,29.71,25,12,25,0.00
2012-3-19,77.7,65.5,59.0,61.2,58.5,56.5,95,79,50,29.72,29.55,40,12,40,0.48
2012-3-20,66.7,59.5,55.3,58.8,56.5,54.2,96,90,70,29.84,29.64,14,4,18,0.10
2012-3-21,65.6,61.0,56.4,60.0,57.9,55.3,97,90,79,29.97,29.84,15,4,15,0.01
2012-3-22,66.0,60.5,54.9,61.1,58.0,54.0,98,92,82,29.97,29.90,15,4,16,0.11
2012-3-23,69.2,59.9,50.1,54.8,51.6,46.9,98,77,47,29.92,29.81,10,1,10,0.00
2012-3-24,68.9,63.7,55.1,58.9,56.7,54.1,98,79,63,29.99,29.89,12,3,12,0.00
2012-3-25,64.5,54.3,45.9,54.8,48.4,44.4,96,83,50,30.11,29.98,12,3,12,0.01
2012-3-26,50.2,45.1,42.0,41.2,37.0,32.0,87,74,62,30.18,29.89,38,23,40,0.08
2012-3-27,73.1,62.0,43.9,56.0,42.8,32.2,81,52,27,29.90,29.68,38,15,40,0.00
2012-3-28,60.5,51.4,43.8,43.6,39.2,36.5,77,64,45,30.00,29.84,16,3,16,0.00
2012-3-29,65.2,52.3,40.3,46.5,40.3,35.6,91,66,42,30.02,29.71,30,12,30,0.76
2012-3-30,55.2,48.6,43.6,50.1,45.6,42.2,96,89,79,29.84,29.66,20,4,25,0.14
2012-3-31,53.2,46.9,43.1,51.2,45.6,42.0,98,95,91,29.85,29.67,22,11,22,0.00
2012-4-1,71.1,54.1,40.5,60.6,50.0,39.3,98,87,66,29.67,29.51,27,9,27,0.00
2012-4-2,76.0,60.5,47.0,61.3,53.1,43.6,95,77,59,29.67,29.58,31,17,31,0.00
2012-4-3,62.0,56.7,50.6,56.6,46.0,38.4,93,69,49,29.98,29.66,21,5,22,0.00
2012-4-4,64.3,54.1,43.4,41.0,32.6,26.6,74,46,25,30.01,29.84,21,4,21,0.00
2012-4-5,60.8,50.2,39.3,34.0,29.5,22.0,72,47,23,30.13,29.90,20,3,20,0.00
2012-4-6,59.7,46.7,33.9,31.9,28.1,25.3,78,51,27,30.25,30.06,27,9,27,0.00
2012-4-7,60.6,48.4,40.0,49.2,35.0,25.4,93,62,33,30.24,30.06,21,7,22,0.05
2012-4-8,63.2,50.8,34.3,33.7,26.0,18.0,69,41,22,30.29,30.05,27,6,28,0.00
2012-4-9,55.2,46.6,34.9,27.4,23.8,19.3,59,41,27,30.15,30.05,22,4,22,0.00
2012-4-10,47.2,39.2,28.9,24.6,21.0,17.7,72,49,32,30.27,30.15,20,4,23,0.00
2012-4-11,56.2,41.1,27.5,25.0,19.6,15.9,72,44,21,30.39,30.21,11,2,11,0.00
2012-4-12,61.2,49.7,32.3,28.5,23.6,18.7,62,37,23,30.22,29.98,20,6,20,0.00
2012-4-13,54.6,50.8,45.8,52.9,41.6,28.1,95,75,37,29.99,29.73,39,17,39,0.05
2012-4-14,69.0,58.0,52.1,58.2,54.3,51.5,99,89,57,29.83,29.50,33,8,33,0.54
2012-4-15,73.9,64.1,55.5,63.5,57.0,43.8,97,79,56,29.51,29.19,44,16,44,0.60
2012-4-16,55.4,42.9,37.6,48.2,37.8,32.1,94,83,63,30.22,29.21,28,7,28,0.02
2012-4-17,40.9,37.9,34.9,32.6,31.2,30.1,89,77,70,30.30,30.22,5,0,5,0.00
2012-4-18,67.0,63.4,54.6,51.6,48.5,45.1,72,58,47,29.94,29.88,16,4,16,0.16
2012-4-19,44.0,40.8,38.4,39.3,37.9,34.4,95,90,69,29.91,29.75,7,5,24,1.40
2012-4-20,54.2,46.7,37.3,37.2,32.7,28.6,93,59,40,30.06,29.88,22,3,22,0.00
2012-4-21,48.7,44.6,40.0,41.8,37.8,30.8,94,77,63,30.04,29.86,23,5,23,0.14
2012-4-22,56.4,48.6,43.0,44.1,41.2,32.8,96,78,46,30.20,29.93,10,2,13,0.05
2012-4-23,64.3,51.4,39.7,44.5,40.4,37.0,96,70,37,30.19,29.84,11,2,12,0.01
2012-4-24,78.0,62.1,45.9,51.5,45.3,38.8,80,56,34,29.84,29.53,15,3,16,0.00
2012-4-25,82.8,65.3,53.9,58.6,50.1,43.3,82,60,33,29.67,29.46,24,7,24,0.00
2012-4-26,60.9,54.6,45.2,53.5,37.5,23.2,85,56,25,30.09,29.67,22,3,22,0.00
2012-4-27,55.7,47.8,41.8,35.5,28.6,23.5,76,49,30,30.14,29.88,37,13,37,0.06
2012-4-28,45.7,44.2,39.3,43.6,42.0,38.0,95,92,89,30.18,29.98,24,7,24,0.22
2012-4-29,51.3,46.4,42.1,45.6,43.8,40.8,97,91,76,30.19,29.99,23,6,23,0.36
2012-4-30,63.2,52.0,44.8,53.2,48.2,44.0,98,88,67,29.99,29.85,14,3,14,0.00
2012-5-1,72.8,58.5,48.7,63.3,55.0,47.3,98,89,67,29.86,29.57,31,13,31,0.00
2012-5-2,75.8,67.1,57.7,67.8,63.4,55.8,97,88,73,29.73,29.54,22,6,22,0.71
2012-5-3,81.4,72.0,63.9,69.2,62.6,55.4,99,73,48,29.80,29.63,37,3,37,0.33
2012-5-4,80.5,67.1,59.9,68.9,61.9,56.1,96,85,55,29.87,29.72,28,5,28,0.55
2012-5-5,68.0,62.0,56.6,65.5,60.3,55.5,99,94,86,29.92,29.81,23,9,23,0.00
2012-5-6,69.9,62.4,58.2,65.4,59.4,56.8,97,90,78,29.94,29.78,22,5,23,0.42
2012-5-7,66.7,60.9,53.9,58.0,49.3,40.5,97,67,45,29.97,29.89,15,3,16,0.00
2012-5-8,56.1,52.6,50.6,47.8,46.6,45.6,88,80,71,29.94,29.88,13,3,13,0.02
2012-5-9,64.2,55.0,47.8,48.9,44.4,38.6,96,70,41,30.03,29.93,12,1,12,0.01
2012-5-10,73.9,59.0,46.7,48.6,42.4,38.7,77,56,34,29.96,29.81,21,7,21,0.00
2012-5-11,73.0,62.8,52.6,56.6,48.5,37.3,76,60,37,30.17,29.82,24,6,24,0.00
2012-5-12,69.0,58.5,48.3,44.2,38.4,31.0,80,50,26,30.31,30.17,13,1,13,0.00
2012-5-13,75.2,62.5,50.1,48.0,32.0,23.3,80,34,16,30.27,30.07,8,0,8,0.00
2012-5-14,81.1,67.5,53.4,47.7,37.9,29.6,54,35,20,30.07,29.87,16,3,16,0.00
2012-5-15,78.8,69.0,59.1,51.6,41.2,31.5,62,38,19,29.99,29.82,18,5,19,0.00
2012-5-16,74.4,63.1,51.2,43.4,34.2,26.1,61,37,18,30.10,29.97,9,1,9,0.00
2012-5-17,82.5,67.4,50.4,45.3,41.6,30.9,71,42,25,29.99,29.77,34,12,34,0.00
2012-5-18,89.0,75.1,60.1,53.4,47.9,42.3,58,40,20,29.82,29.70,32,12,32,0.00
2012-5-19,86.5,75.6,62.7,59.0,55.8,52.4,70,51,38,29.79,29.72,32,11,32,0.00
2012-5-20,74.7,61.0,52.6,58.7,50.7,38.2,93,70,44,30.17,29.73,20,3,20,0.00
2012-5-21,76.8,62.7,44.6,47.8,39.9,32.1,82,48,23,30.23,30.05,11,1,12,0.00
2012-5-22,83.9,69.2,51.8,47.3,41.0,32.2,59,38,23,30.06,29.69,28,9,28,0.00
2012-5-23,88.3,75.1,61.1,54.3,49.4,44.8,59,42,29,29.69,29.35,43,17,43,0.00
2012-5-24,78.0,66.9,55.0,64.8,57.1,50.9,94,72,46,29.70,29.30,26,6,37,0.14
2012-5-25,70.2,60.6,50.7,59.6,54.2,48.7,95,81,52,30.03,29.70,13,1,13,0.15
2012-5-26,75.5,67.0,57.4,69.7,62.2,55.3,95,85,73,30.06,29.77,35,12,35,0.22
2012-5-27,92.8,80.7,69.5,70.6,65.0,56.3,94,63,32,29.77,29.55,28,10,28,0.00
2012-5-28,80.0,70.6,61.2,65.7,57.6,47.1,94,66,34,29.78,29.57,24,4,24,0.07
2012-5-29,67.0,60.5,53.2,49.4,45.0,41.0,79,57,42,29.92,29.75,25,4,25,0.00
2012-5-30,65.5,55.0,47.5,49.8,44.6,41.3,93,70,42,30.00,29.86,11,1,11,0.20
2012-5-31,57.7,51.4,47.3,48.6,46.4,44.1,95,84,64,29.99,29.93,12,1,12,0.23
2012-6-1,70.3,58.7,45.8,49.2,44.3,38.3,94,62,33,29.98,29.78,10,1,10,0.00
2012-6-2,74.2,63.3,54.9,57.7,51.9,46.1,92,69,38,29.78,29.71,14,2,14,0.00
2012-6-3,76.8,66.8,55.6,57.4,51.5,47.3,77,59,44,29.82,29.70,25,6,25,0.00
2012-6-4,84.8,72.0,57.7,59.9,55.0,51.1,84,57,36,29.87,29.71,17,2,17,0.00
2012-6-5,86.0,73.8,62.5,62.9,57.3,53.6,81,58,35,29.93,29.83,19,2,19,0.00
2012-6-6,79.6,69.3,57.5,55.1,52.4,49.2,83,57,38,30.01,29.92,23,8,23,0.00
2012-6-7,81.0,69.3,57.9,60.7,53.3,50.1,78,58,36,30.09,29.96,15,3,15,0.00
2012-6-8,88.1,76.0,62.8,56.7,54.0,51.3,72,48,31,29.99,29.74,21,6,21,0.00
2012-6-9,87.8,77.2,64.1,56.2,53.6,48.6,69,46,27,29.77,29.62,27,9,27,0.00
2012-6-10,88.2,76.1,64.3,68.0,60.6,55.8,90,60,41,29.69,29.58,30,8,30,0.03
2012-6-11,76.7,69.0,59.8,68.3,55.4,44.9,94,65,38,29.95,29.66,22,4,22,0.04
2012-6-12,72.0,60.8,50.4,46.7,42.4,37.9,71,52,32,30.14,29.94,15,2,15,0.00
2012-6-13,76.0,64.6,54.2,50.7,46.8,41.3,68,53,38,30.12,29.89,23,8,27,0.00
2012-6-14,89.0,76.1,60.9,63.4,58.0,50.1,71,55,41,29.92,29.71,31,11,31,0.00
2012-6-15,84.5,74.8,66.2,67.9,62.7,54.9,92,67,52,29.92,29.80,21,4,21,0.22
2012-6-16,82.3,72.3,66.2,70.5,66.1,56.7,98,82,58,29.88,29.77,16,4,16,0.65
2012-6-17,77.8,66.9,54.7,68.2,56.1,49.4,84,69,45,29.85,29.48,24,4,24,0.00
2012-6-18,90.2,83.3,76.1,73.1,71.3,68.6,83,68,53,29.56,29.44,24,5,24,0.00
2012-6-19,89.0,81.6,73.8,71.7,68.7,66.3,81,66,53,29.67,29.55,36,10,36,0.00
2012-6-20,83.8,73.9,60.3,71.6,66.7,59.2,97,79,61,29.88,29.64,26,8,26,1.93
2012-6-21,77.2,67.6,59.0,60.4,57.5,52.7,97,73,46,29.99,29.87,12,2,12,0.01
2012-6-22,80.2,70.5,58.5,61.6,57.5,54.4,87,65,46,30.01,29.90,12,2,12,0.00
2012-6-23,76.5,68.4,63.2,65.6,61.5,57.6,89,79,63,29.93,29.83,19,4,19,0.01
2012-6-24,84.2,73.7,63.6,71.7,67.0,61.7,96,80,62,29.95,29.84,17,2,17,0.28
2012-6-25,77.2,69.6,62.5,67.1,57.5,46.9,89,68,35,30.06,29.93,17,4,18,0.00
2012-6-26,80.8,67.9,54.3,58.4,52.2,46.8,82,59,39,29.99,29.73,24,10,24,0.00
2012-6-27,95.0,80.5,65.0,78.0,66.8,54.0,83,64,50,29.74,29.58,22,8,22,0.00
2012-6-28,88.7,81.3,70.6,76.0,66.0,51.5,90,64,29,29.84,29.63,16,1,16,0.00
2012-6-29,78.3,72.9,68.0,68.9,64.4,58.0,94,75,65,29.84,29.72,9,1,9,0.00
2012-6-30,90.3,77.8,65.7,74.2,68.5,64.1,97,75,50,29.81,29.75,7,1,7,0.00
2012-7-1,89.9,79.7,68.4,76.8,72.1,65.7,95,79,57,29.86,29.77,19,4,19,0.00
2012-7-2,92.2,82.4,72.9,74.6,71.6,69.2,92,72,49,29.83,29.74,21,4,21,0.00
2012-7-3,93.1,81.6,72.3,77.1,72.6,68.2,90,75,54,29.81,29.66,20,4,20,0.00
2012-7-4,94.4,84.0,73.7,77.0,72.6,69.4,87,70,49,29.76,29.69,12,4,15,0.00
2012-7-5,91.5,82.1,74.6,77.7,71.9,66.9,86,72,57,29.86,29.75,13,2,13,0.00
2012-7-6,96.2,84.9,72.5,75.2,73.0,70.2,97,70,44,29.88,29.80,16,3,16,0.00
2012-7-7,84.7,77.3,70.0,73.6,67.1,59.2,95,72,50,30.03,29.84,16,2,16,0.00
2012-7-8,84.7,74.8,65.2,65.5,62.1,56.1,85,66,40,30.11,30.01,7,0,8,0.00
2012-7-9,86.0,75.2,63.5,68.5,60.4,49.8,92,63,32,30.06,30.01,13,1,14,0.00
2012-7-10,86.1,74.6,63.1,61.8,56.4,49.0,80,55,30,30.09,30.02,13,1,13,0.00
2012-7-11,84.7,73.9,61.3,64.1,58.8,54.7,91,62,38,30.10,29.99,13,2,13,0.00
2012-7-12,86.2,75.4,61.9,69.3,61.7,56.4,84,64,45,30.00,29.91,19,4,19,0.00
2012-7-13,85.6,76.7,69.8,69.1,66.5,64.0,88,71,54,29.96,29.87,19,5,19,0.00
2012-7-14,91.5,79.2,68.1,70.8,66.5,63.1,91,68,42,29.96,29.89,9,2,9,0.00
2012-7-15,91.0,79.7,67.9,70.9,67.0,63.1,95,68,41,29.99,29.88,12,2,12,0.00
2012-7-16,92.5,81.6,71.4,69.8,67.5,63.7,91,65,40,29.89,29.71,19,5,20,0.00
2012-7-17,95.5,83.4,70.3,73.4,69.2,65.8,87,65,41,29.76,29.69,12,3,12,0.00
2012-7-18,92.0,78.5,70.1,75.1,70.0,66.9,95,76,51,29.83,29.70,20,2,20,0.06
2012-7-19,86.5,75.6,68.4,71.5,68.3,65.5,98,80,56,30.00,29.83,11,1,11,0.00
2012-7-20,84.3,73.3,62.3,67.7,63.3,56.7,96,73,46,30.08,29.98,14,4,14,0.00
2012-7-21,86.3,73.7,65.6,71.7,66.9,62.2,89,80,58,30.07,29.92,13,3,13,0.02
2012-7-22,94.7,80.4,70.1,74.6,69.6,64.9,92,72,40,30.01,29.81,18,4,18,0.11
2012-7-23,98.0,84.6,76.0,77.2,71.4,64.0,90,67,33,29.89,29.81,11,2,11,0.00
2012-7-24,91.0,80.6,71.8,75.7,69.6,64.9,92,71,50,29.91,29.72,23,7,24,0.00
2012-7-25,95.9,83.2,72.0,75.0,70.2,66.7,91,68,43,29.73,29.51,21,7,21,0.00
2012-7-26,88.4,78.7,70.3,71.5,63.3,53.2,96,64,31,29.77,29.57,17,2,17,0.01
2012-7-27,79.9,69.8,62.7,62.6,60.6,58.9,92,74,54,30.04,29.77,12,2,13,0.00
2012-7-28,72.0,66.5,61.4,64.8,62.2,58.2,96,86,73,30.11,29.96,15,2,15,0.00
2012-7-29,75.1,69.1,64.1,68.9,65.9,62.9,97,90,79,30.03,29.89,17,3,17,0.22
2012-7-30,94.3,78.3,64.6,74.1,68.4,63.7,99,75,43,29.91,29.80,11,2,11,0.01
2012-7-31,89.6,77.2,64.7,65.8,62.4,57.7,88,63,36,29.94,29.86,9,1,10,0.00
2012-8-1,92.2,78.6,63.4,72.7,66.9,60.3,92,69,47,29.91,29.73,18,4,18,0.00
2012-8-2,93.0,79.9,70.9,67.8,64.0,61.2,81,60,37,29.81,29.73,15,2,15,0.00
2012-8-3,92.3,79.3,66.8,69.9,65.4,58.5,89,66,34,29.82,29.68,15,4,17,0.00
2012-8-4,79.7,71.0,65.0,68.8,62.3,56.5,96,76,49,29.91,29.73,21,3,21,0.53
2012-8-5,77.3,67.1,59.4,59.3,54.9,48.2,92,67,41,30.17,29.91,11,2,11,0.00
2012-8-6,85.2,70.8,55.2,64.8,57.8,50.1,85,66,41,30.12,29.89,14,3,16,0.00
2012-8-7,93.9,78.9,67.0,68.7,62.8,57.4,82,61,32,29.93,29.88,11,2,12,0.00
2012-8-8,84.2,71.9,64.5,69.2,64.4,58.6,96,78,53,29.94,29.78,30,3,30,0.03
2012-8-9,82.7,69.5,58.8,65.7,60.6,53.4,97,76,44,29.99,29.86,19,2,23,0.01
2012-8-10,76.5,65.0,55.9,58.2,54.9,52.5,94,72,44,30.07,29.97,13,1,13,0.00
2012-8-11,77.3,65.0,51.0,52.9,46.7,34.1,87,56,23,30.06,29.94,10,0,10,0.00
2012-8-12,64.4,60.2,57.8,59.3,57.1,51.5,97,90,63,29.98,29.89,13,2,13,0.66
2012-8-13,80.2,67.0,57.0,61.4,58.8,54.3,98,78,48,30.02,29.92,12,1,12,0.03
2012-8-14,82.3,71.0,58.8,63.8,59.6,56.2,93,70,46,29.93,29.82,15,2,15,0.00
2012-8-15,81.2,71.1,63.4,66.4,61.9,57.5,87,74,53,29.82,29.66,22,5,22,0.00
2012-8-16,75.0,65.5,58.3,67.3,55.6,49.2,90,71,49,30.02,29.67,17,3,17,0.01
2012-8-17,74.5,62.2,50.8,51.0,47.5,41.7,86,62,35,30.07,29.99,13,1,13,0.00
2012-8-18,73.7,62.2,52.3,55.5,50.1,44.6,86,66,41,30.01,29.94,9,1,9,0.00
2012-8-19,77.3,63.4,50.8,59.3,53.4,47.8,91,72,42,29.99,29.91,11,2,11,0.00
2012-8-20,78.9,65.5,51.1,57.6,51.2,46.7,96,64,34,29.99,29.91,10,1,10,0.00
2012-8-21,81.1,67.0,52.0,55.3,48.6,44.6,78,54,31,30.04,29.96,12,2,12,0.00
2012-8-22,88.8,69.6,53.6,64.2,56.5,49.1,87,66,36,29.97,29.84,17,4,17,0.00
2012-8-23,89.8,76.3,62.1,62.6,57.5,54.0,87,55,32,29.90,29.78,26,6,26,0.00
2012-8-24,87.0,77.5,66.9,65.9,60.0,52.9,72,56,41,29.85,29.77,21,6,21,0.00
2012-8-25,76.2,67.9,61.3,66.4,61.9,57.2,93,82,65,29.90,29.82,16,3,16,0.04
2012-8-26,87.0,72.4,61.8,69.2,64.5,60.9,99,78,50,29.99,29.87,8,1,8,0.01
2012-8-27,91.0,74.6,59.3,66.2,59.6,53.2,97,65,29,30.08,29.99,9,1,9,0.00
2012-8-28,89.8,76.3,63.3,66.9,62.3,57.5,84,64,41,30.08,29.89,16,4,17,0.00
2012-8-29,93.6,78.9,65.2,65.2,60.8,53.8,88,59,28,29.92,29.76,25,7,25,0.00
2012-8-30,95.7,80.9,66.8,62.5,59.6,56.0,83,52,28,29.83,29.73,28,8,28,0.00
2012-8-31,89.5,76.7,66.2,65.5,60.2,53.5,87,59,37,29.98,29.83,13,1,16,0.00
2012-9-1,86.7,73.8,63.9,60.0,56.4,53.8,86,57,35,30.00,29.91,16,2,16,0.00
2012-9-2,90.0,75.0,59.9,66.8,61.2,53.3,82,64,42,29.94,29.80,15,3,15,0.00
2012-9-3,82.8,74.6,67.1,70.8,67.8,64.4,97,80,57,29.86,29.79,13,3,13,0.00
2012-9-4,95.3,76.6,64.2,72.8,66.2,60.4,98,74,35,29.86,29.66,38,2,39,0.00
2012-9-5,82.3,69.8,59.6,66.2,58.7,48.8,95,71,39,29.86,29.65,19,4,39,0.27
2012-9-6,81.5,69.2,52.1,52.6,48.3,42.7,83,51,26,29.95,29.78,18,3,18,0.00
2012-9-7,71.5,63.3,55.1,59.4,52.1,44.1,93,69,42,29.98,29.73,20,3,20,0.01
2012-9-8,80.1,62.6,48.6,48.6,45.5,41.1,87,58,28,30.02,29.77,27,3,27,0.00
2012-9-9,76.0,61.9,50.3,52.4,47.5,43.8,90,62,34,30.15,29.98,12,2,12,0.00
2012-9-10,80.5,65.4,49.2,51.1,47.3,43.8,86,56,30,30.08,29.86,25,7,25,0.00
2012-9-11,91.3,74.8,59.8,53.2,50.5,46.3,75,47,22,29.87,29.77,29,9,29,0.00
2012-9-12,73.0,61.9,51.3,56.3,51.5,42.5,94,71,49,30.23,29.84,20,2,20,0.38
2012-9-13,71.7,57.6,49.4,52.2,46.8,35.3,95,71,28,30.35,30.23,12,2,12,0.25
2012-9-14,79.9,62.1,49.6,50.0,46.1,38.5,88,60,26,30.30,30.19,12,3,12,0.00
2012-9-15,79.0,65.4,53.6,46.7,44.1,39.3,71,49,25,30.22,30.02,23,7,23,0.00
2012-9-16,78.8,65.5,53.2,59.8,52.9,44.6,86,65,45,30.02,29.83,20,5,20,0.00
2012-9-17,62.9,57.1,49.2,58.3,46.5,36.6,92,69,40,29.95,29.83,17,3,17,0.06
2012-9-18,62.1,51.2,40.4,42.6,37.5,29.5,91,63,30,30.03,29.91,10,2,10,0.00
2012-9-19,78.8,61.6,47.6,48.7,39.7,33.1,65,47,25,29.92,29.65,23,6,23,0.00
2012-9-20,66.7,56.2,47.8,39.0,34.0,30.1,63,44,27,29.93,29.85,13,2,13,0.00
2012-9-21,69.3,56.4,46.8,47.0,41.9,31.0,86,60,35,29.89,29.75,16,2,16,0.01
2012-9-22,59.2,47.6,37.3,39.4,33.6,27.1,72,59,41,30.24,29.81,19,3,19,0.00
2012-9-23,61.1,48.4,34.8,36.0,29.9,24.8,85,52,27,30.32,30.20,10,1,10,0.00
2012-9-24,76.8,58.0,39.9,40.2,33.0,24.6,58,41,23,30.20,29.79,25,7,25,0.00
2012-9-25,78.8,62.9,50.2,45.2,40.2,34.9,72,46,24,29.88,29.75,11,2,11,0.00
2012-9-26,71.9,56.7,43.7,39.8,35.3,27.0,82,48,20,30.14,29.88,7,1,8,0.00
2012-9-27,70.9,55.5,41.1,45.2,38.4,35.1,80,55,31,30.22,30.12,17,2,17,0.00
2012-9-28,75.3,60.0,45.6,41.8,37.8,35.4,72,46,25,30.20,30.08,8,1,9,0.00
2012-9-29,82.1,65.6,51.0,42.2,38.8,36.1,63,40,20,30.11,29.96,9,2,9,0.00
2012-9-30,81.3,65.9,51.3,48.0,41.1,35.8,77,43,23,29.98,29.84,8,1,9,0.00
2012-10-1,73.0,61.2,50.6,48.8,43.7,38.5,67,53,36,29.88,29.80,20,3,20,0.00
2012-10-2,73.0,59.4,47.9,49.7,41.4,35.7,77,54,27,29.92,29.81,9,1,9,0.00
2012-10-3,76.9,61.3,45.9,47.5,43.1,39.7,83,54,29,29.90,29.79,21,4,21,0.00
2012-10-4,60.0,49.9,41.9,43.8,36.6,30.8,76,61,46,30.19,29.83,23,5,23,0.00
2012-10-5,50.2,41.1,30.4,31.5,25.3,17.4,77,55,29,30.22,30.13,20,4,20,0.00
2012-10-6,41.8,37.9,32.3,29.7,26.6,23.0,81,64,50,30.27,30.17,16,3,16,0.00
2012-10-7,53.0,40.0,25.3,26.4,22.8,19.6,82,53,27,30.26,29.97,19,5,19,0.00
2012-10-8,67.2,51.7,38.1,47.9,31.7,22.8,84,49,25,29.97,29.70,33,10,33,0.01
2012-10-9,52.4,46.6,36.6,48.5,40.3,28.4,94,79,53,30.01,29.73,21,3,21,0.42
2012-10-10,53.4,41.8,33.1,33.6,28.6,25.9,81,61,36,30.17,29.97,17,4,17,0.00
2012-10-11,50.6,46.0,38.3,36.5,30.5,20.0,67,55,42,30.36,29.92,29,7,29,0.00
2012-10-12,53.4,41.2,28.1,36.8,22.5,16.2,74,50,23,30.42,30.06,24,7,24,0.05
2012-10-13,68.8,56.6,43.4,64.1,53.8,36.9,97,90,76,30.06,29.62,26,7,26,0.12
2012-10-14,57.7,52.1,47.2,55.9,46.9,38.0,97,83,64,29.88,29.57,25,5,25,0.31
2012-10-15,65.5,50.7,39.1,45.1,39.7,34.2,86,68,38,29.97,29.78,10,2,10,0.00
2012-10-16,69.0,55.5,45.1,53.1,47.1,41.2,88,74,55,29.78,29.35,15,5,15,0.00
2012-10-17,60.2,54.2,45.8,53.2,45.5,37.3,89,73,50,29.36,29.21,26,9,26,0.01
2012-10-18,46.8,43.5,39.7,44.1,40.7,37.5,95,90,73,29.37,29.20,22,6,22,0.05
2012-10-19,47.7,45.1,42.3,45.6,43.8,41.2,97,95,91,29.74,29.36,14,2,14,0.03
2012-10-20,49.7,44.1,39.5,45.6,42.1,38.3,97,93,83,29.84,29.74,12,2,12,0.00
2012-10-21,72.8,53.3,38.6,56.7,47.5,37.3,96,82,57,29.83,29.76,22,8,22,0.00
2012-10-22,70.2,61.0,55.9,61.9,57.0,52.0,95,87,73,29.83,29.74,17,3,17,0.00
2012-10-23,66.8,63.4,57.9,64.9,61.6,57.2,99,94,85,29.75,29.64,21,7,21,0.00
2012-10-24,69.8,59.6,51.2,68.4,58.8,50.8,100,97,90,29.75,29.61,17,3,17,0.02
2012-10-25,51.4,40.9,35.8,51.1,38.4,27.8,99,91,72,30.22,29.45,25,6,25,1.51
2012-10-26,39.9,36.2,33.3,29.6,27.5,25.1,81,71,61,30.42,30.22,16,3,16,0.00
2012-10-27,42.1,35.7,27.4,28.2,24.2,20.4,85,63,46,30.41,30.30,7,1,7,0.00
2012-10-28,33.2,31.4,29.8,25.8,24.7,23.5,81,76,69,30.35,30.33,4,1,4,0.00
2012-10-30,47.4,41.4,31.5,31.6,29.7,22.8,82,64,48,30.17,30.02,12,4,12,0.00
2012-10-31,51.4,38.9,28.6,29.5,24.6,17.4,79,59,28,30.04,29.95,12,2,12,0.00
2012-11-1,48.9,42.5,33.4,38.2,32.3,25.3,79,67,51,30.02,29.92,15,4,15,0.00
2012-11-2,43.2,35.5,26.6,30.4,27.2,22.9,86,72,57,30.14,30.01,14,2,14,0.00
2012-11-3,48.4,41.6,36.7,32.2,30.2,28.7,78,64,49,30.20,30.13,6,0,6,0.00
2012-11-4,46.3,41.4,38.0,39.4,36.9,30.8,93,84,66,30.21,30.09,14,4,14,0.09
2012-11-5,43.2,40.8,39.2,38.8,37.6,35.7,96,89,76,30.17,29.99,15,5,16,0.07
2012-11-6,46.0,41.3,38.3,40.0,37.5,34.7,96,87,73,30.00,29.83,21,7,21,0.12
2012-11-7,43.0,39.3,33.2,36.8,33.7,29.9,91,81,66,30.13,29.96,14,2,18,0.00
2012-11-8,55.9,39.8,30.3,42.2,34.7,28.2,93,83,54,30.10,29.93,19,7,23,0.00
2012-11-9,55.6,45.3,35.1,45.0,40.3,33.5,96,83,64,29.96,29.81,22,6,22,0.00
2012-11-10,76.2,60.3,47.7,58.4,52.3,43.7,97,77,48,29.81,29.48,34,13,34,0.00
2012-11-11,61.3,35.8,20.8,53.8,31.7,14.2,94,85,73,30.02,29.50,23,6,25,0.17
2012-11-12,28.8,23.6,18.4,20.5,17.4,14.0,85,77,67,30.37,30.02,24,7,24,0.00
2012-11-13,44.3,30.9,18.2,29.9,23.1,14.2,85,74,48,30.44,30.31,19,5,19,0.00
2012-11-14,54.2,42.8,34.8,34.8,31.7,28.3,86,66,38,30.32,30.19,20,7,20,0.00
2012-11-15,52.5,42.3,31.3,36.8,32.6,26.6,85,69,52,30.42,30.16,17,5,17,0.00
2012-11-16,49.9,35.6,25.3,31.3,25.7,16.6,85,68,44,30.47,30.35,11,2,11,0.00
2012-11-17,56.7,42.2,28.5,39.1,33.6,26.1,94,74,46,30.37,30.24,24,8,24,0.00
2012-11-18,57.6,47.9,40.6,36.3,34.0,31.3,70,59,42,30.25,30.10,24,10,24,0.00
2012-11-19,58.4,49.3,41.5,44.8,40.9,35.0,96,74,56,30.11,29.98,21,6,21,0.00
2012-11-20,56.5,43.5,34.5,43.0,36.4,32.4,96,78,46,30.16,30.04,12,2,12,0.00
2012-11-21,69.8,54.2,41.1,44.6,40.4,35.3,81,62,37,30.10,29.77,29,10,29,0.00
2012-11-22,60.4,47.4,32.1,45.8,37.5,24.4,79,69,50,30.01,29.63,27,8,27,0.00
2012-11-23,32.6,23.5,15.6,25.6,15.6,11.4,85,72,58,30.39,30.01,28,7,28,0.00
2012-11-24,28.9,21.2,12.0,20.7,15.2,9.4,90,78,61,30.38,29.85,19,5,19,0.00
2012-11-25,34.9,29.9,24.5,26.4,22.6,19.8,85,74,64,30.18,29.85,18,3,18,0.00
2012-11-26,27.6,20.5,12.5,22.4,10.6,5.4,81,65,52,30.45,30.18,21,4,21,0.00
2012-11-27,34.1,24.4,11.9,22.2,14.2,5.1,83,66,49,30.44,30.19,20,6,20,0.00
2012-11-28,42.2,27.9,17.2,26.9,21.5,14.8,94,78,52,30.41,30.14,13,3,13,0.00
2012-11-29,49.8,36.3,26.0,34.9,29.0,21.1,89,76,55,30.15,29.98,11,3,11,0.00
2012-11-30,43.8,34.9,28.5,36.4,31.5,26.0,96,88,75,30.11,29.98,17,4,18,0.00
2012-12-1,51.6,42.4,32.4,51.1,41.3,31.6,98,96,89,30.06,29.73,19,8,19,0.00
2012-12-2,58.7,44.1,34.3,46.1,41.1,32.7,98,90,55,29.99,29.82,22,6,23,0.00
2012-12-3,47.5,46.5,46.0,47.0,45.6,44.7,98,96,94,29.83,29.72,22,12,23,0.00
2012-12-4,26.8,25.2,23.4,18.7,17.2,15.8,74,71,70,30.39,30.34,6,2,6,0.00
2012-12-5,41.1,30.4,19.6,32.6,20.7,13.9,79,68,52,30.40,29.97,30,12,31,0.00
2012-12-6,44.4,41.7,34.8,39.1,34.8,27.4,87,76,70,29.98,29.86,25,6,25,0.07
2012-12-7,35.8,31.7,28.3,28.0,25.6,23.6,85,78,67,30.00,29.94,14,3,14,0.00
2012-12-8,35.2,30.3,25.0,30.3,26.1,23.3,95,85,70,30.06,29.96,22,5,22,0.00
2012-12-9,33.2,29.7,19.5,32.5,28.4,16.9,98,95,91,29.99,29.77,20,8,21,0.01
2012-12-10,19.7,13.6,8.9,16.8,10.5,5.8,91,87,80,30.01,29.89,19,4,19,0.00
2012-12-11,33.6,24.7,13.8,29.7,20.4,9.6,91,84,75,30.04,29.89,15,4,15,0.00
2012-12-12,47.7,34.4,22.1,28.9,22.9,18.6,92,65,42,30.03,29.94,33,11,33,0.01
2012-12-13,45.4,34.7,25.0,26.9,21.9,18.3,90,61,44,30.11,29.95,22,6,22,0.00
2012-12-14,50.2,35.8,22.4,33.4,27.0,19.7,91,72,46,30.12,29.75,25,8,25,0.00
2012-12-15,43.8,40.2,33.1,42.8,38.8,32.6,99,95,66,29.75,29.45,24,7,24,0.80
2012-12-16,33.1,24.8,19.9,32.6,23.6,18.3,98,95,92,29.83,29.58,15,4,15,0.00
2012-12-17,27.5,23.7,19.4,25.8,22.2,17.8,96,94,92,29.83,29.71,8,2,9,0.00
2012-12-18,32.0,29.2,25.6,30.6,27.8,24.4,96,94,92,29.87,29.56,14,4,16,0.00
2012-12-19,33.5,31.4,29.8,32.2,30.0,28.5,97,95,91,30.02,29.84,15,3,15,0.00
2012-12-20,30.5,20.7,9.2,29.8,18.8,6.3,97,92,87,30.07,29.74,33,9,33,0.00
2012-12-21,19.2,11.3,5.0,13.0,7.7,2.0,92,85,75,30.33,30.07,15,3,16,0.00
2012-12-22,31.9,17.8,8.8,22.0,13.2,6.0,90,83,65,30.28,29.98,14,4,14,0.00
2012-12-23,20.2,16.0,11.2,17.0,13.4,8.6,92,89,87,30.11,30.02,12,2,14,0.00
2012-12-24,19.0,13.3,1.8,14.7,9.9,-1.9,92,86,80,30.32,29.98,18,4,18,0.00
2012-12-25,9.4,3.1,-2.3,4.2,-0.9,-5.7,86,83,78,30.53,30.32,12,4,12,0.00
2012-12-26,20.1,8.8,2.2,14.6,4.8,-1.3,88,83,77,30.44,30.27,10,2,10,0.00
2012-12-27,22.2,15.3,6.6,19.2,12.4,3.6,93,88,82,30.30,30.12,13,2,13,0.00
2012-12-28,25.6,21.6,16.9,22.0,19.2,14.7,94,90,86,30.12,29.98,10,2,10,0.00
2012-12-29,16.9,12.1,2.8,14.7,9.2,-0.3,91,88,82,30.26,30.04,15,4,15,0.00
2012-12-30,26.7,14.8,3.3,22.9,11.7,0.6,90,87,82,30.29,29.99,16,4,16,0.00
2012-12-31,19.4,12.9,0.5,15.4,8.1,-3.8,91,81,66,30.30,30.05,20,4,20,0.00
2013-1-1,14.6,5.5,-4.0,10.7,0.9,-7.6,86,81,71,30.36,30.16,12,3,12,0.00